Skip Page Navigation
NASA JPL Caltech
NASA Logo - Jet Propulsion Laboratory + View the NASA Portal
+ Center for Near-Earth Object Studies
JPL Home Earth Solar System Stars & Galaxies Technology
JPL Solar System Dynamics
BODIES ORBITS EPHEMERIDES TOOLS PHYSICAL DATA DISCOVERY FAQ SITE MAP
JPL Small-Body Database Browser
Search: [ help ]  
1098 Hakone (1928 RJ)
Classification: Main-belt Asteroid          SPK-ID: 2001098
Ephemeris | Orbit Diagram | Orbital Elements | Mission Design | Physical Parameters | Discovery Circumstances ]

[ hide orbit diagram ]

For accurate long-term ephemerides, please instead use our Horizons system.This orbit viewer was implemented using two-body methods, and hence should not be used for determining accurate long-term trajectories (over several years or decades) or planetary encounter circumstances.


[ revert to old Java-based viewer ]

Orbital Elements at Epoch 2459000.5 (2020-May-31.0) TDB
Reference: JPL 39 (heliocentric ecliptic J2000)
 Element Value Uncertainty (1-sigma)   Units 
e .1172828619608685 3.4286e-08  
a 2.690835240594866 8.7764e-09 au
q 2.375246382512738 9.1279e-08 au
i 13.38092523687585 4.3434e-06 deg
node 328.927462495409 1.6847e-05 deg
peri 80.68215242603863 2.5862e-05 deg
M 237.5342851676423 1.9989e-05 deg
tp 2459548.955136421319
(2021-Nov-30.45513642)
9.0568e-05 TDB
period 1612.237754721427
4.41
7.8877e-06
2.16e-08
d
yr
n .2232921285621444 1.0924e-09 deg/d
Q 3.006424098676994 9.8057e-09 au
  Orbit Determination Parameters
   # obs. used (total)      2601  
   data-arc span      41521 days (113.68 yr)  
   first obs. used      1906-10-13  
   last obs. used      2020-06-17  
   planetary ephem.      DE431  
   SB-pert. ephem.      SB431-N16  
   condition code      0  
   norm. resid. RMS      .38711  
   source      ORB  
   producer      Otto Matic  
   solution date      2020-Jun-23 15:26:02  

Additional Information
 Earth MOID = 1.42763 au 
 Jupiter MOID = 2.38139 au 
 T_jup = 3.323 
[ show covariance matrix ]

Ephemeris | Orbit Diagram | Orbital Elements | Mission Design | Physical Parameters | Discovery Circumstances ]

Physical Parameter Table
Parameter Symbol Value Units Sigma Reference Notes
absolute magnitude H 10.5   n/a MPO448922  
diameter diameter 26.684 km 0.397 urn:nasa:pds:neowise_diameters_albedos::2.0[mainbelt] (http://adsabs.harvard.edu/abs/2014ApJ...791..121M)  
rotation period rot_per 7.142 h n/a LCDB (Rev. 2019-August); Warner et al., 2009 Published Reference List:
[Behrend, R. (2004) Observatoire de Geneve web site, http://obswww.unige.ch/~behrend/page_cou.html]
[LeCrone, C.; Addleman, D.; Butler, T.; Hudson, E.; et al. (2005) Minor Planet Bull. 32, 46-48.]
[Chang, C.K.; Ip, W.-H.; Lin, H.-W.; Cheng, Y.C.; et al. (2015) Astrophys. J. Supp. Ser. 219, A27.]
[Durech, J.; Hanus, J.; Oszkiewsicz, D.; Vanco, R. (2016) Astron. Astrophys. 587, A48.]
geometric albedo albedo 0.206   0.009 urn:nasa:pds:neowise_diameters_albedos::2.0[mainbelt] (http://adsabs.harvard.edu/abs/2014ApJ...791..121M)  
SMASSII spectral type spec_B Xe   n/a EAR-A-5-DDR-TAXONOMY-V4.0 based on a high-resolution spectrum by Xu et al. (1995) or Bus and Binzel (2002)

1098 Hakone (1928 RJ)          Discovered 1928-Sep-05 by Oikawa, O. at Tokyo
Independent discovery Sept. 9 by M. Wolf, Heidelberg, was announced first.
Reference: DISCOVERY.DBLast Updated: 2003-08-29

Alternate Designations
 1928 RJ = 1926 EC = 1950 QH1 = 1952 BE1 = A906 RD = A917 DD 
Ephemeris | Orbit Diagram | Orbital Elements | Mission Design | Physical Parameters | Discovery Circumstances ]
ABOUT SSD CREDITS/AWARDS PRIVACY/COPYRIGHT GLOSSARY LINKS
FirstGov 2020-Jul-05 19:40 UT
(server date/time)  
NASA Home Page
Site Manager:   Ryan S. Park
Webmaster  Alan B. Chamberlin